Regional Weather Roundup
Issued by NWS

Home | Current Version | Previous Version | Text Only | Print | Product List | Glossary Off
Versions: 1 2 3 4 5 6 7 8 9 10 11 12 13 14 15 16 17 18 19 20 21 22 23 24 25 26 27 28 29 30 31 32 33 34 35 36 37 38 39 40 41 42 43 44 45 46 47 48 49 50

000
ASUS43 KBIS 292020
RWRND

NORTH DAKOTA REGIONAL WEATHER ROUNDUP
NATIONAL WEATHER SERVICE BISMARCK ND
200 PM CST THU JAN 29 2015

NOTE: "FAIR" INDICATES FEW OR NO CLOUDS BELOW 12,000 FEET WITH NO
SIGNIFICANT WEATHER AND/OR OBSTRUCTIONS TO VISIBILITY.


NDZ001>003-009>011-017-292100-
NORTHWEST NORTH DAKOTA

CITY           SKY/WX    TMP DP  RH WIND       PRES   REMARKS
WILLISTON      MOSUNNY   29  19  66 SW6       30.44
MINOT          CLOUDY    19  12  74 NW9       30.47F HAZE    WCI   8
MINOT AFB      CLOUDY    17  14  86 N6        30.48F WCI   9
$$

NDZ018>021-031>035-040>046-292100-
SOUTHWEST NORTH DAKOTA

CITY           SKY/WX    TMP DP  RH WIND       PRES   REMARKS
BISMARCK       CLOUDY    29  19  66 NW8       30.48
DICKINSON      SUNNY     35  20  54 NW7       30.39F
GARRISON         N/A     25  18  74 NW12      30.46F WCI  14
HETTINGER ARPT SUNNY     39  15  37 NW6       30.42F
$$

NDZ004>008-012>016-024-026-027-054-292100-
NORTHEAST NORTH DAKOTA

CITY           SKY/WX    TMP DP  RH WIND       PRES   REMARKS
GRAND FORKS    MOSUNNY   14   3  62 N18       30.53R WCI  -3
GRND FRKS AFB  PTSUNNY   14   3  62 N18       30.53R WCI  -3
DEVILS LAKE    CLOUDY    14   7  73 NW10      30.49R WCI   1
$$

NDZ022-023-025-028>030-036>039-047>053-292100-
SOUTHEAST NORTH DAKOTA

CITY           SKY/WX    TMP DP  RH WIND       PRES   REMARKS
FARGO          CLOUDY    19   8  62 N18       30.49F WCI   4
JAMESTOWN      CLOUDY    19  11  70 NW12      30.48R WCI   7
$$




USA.gov is the U.S. government's official web portal to all federal, state and local government web resources and services.